Location: ?????????
(53.2086°N, 54.0693°E)
Time: 06:40:43
(UTC+00:00)

COSMOS 2455 - Pass Details

Date: 08 December 2019
Orbit: 903 x 907 km, 67.1° (Epoch: 19 January)

Event Time Altitude Azimuth Distance (km) Brightness Sun altitude
Rises 14:10:20 0° 258° (WSW) 3,530 7.7 -17.3°
Reaches altitude 10° 14:13:06 10° 268° (W) 2,592 6.5 -17.7°
Maximum altitude 14:18:30 33° 331° (NNW) 1,482 4.1 -18.4°
Enters shadow 14:22:27 17° 26° (NNE) 2,158 4.5 -19.0°
